This demonstration page uses our WeatherBlox Daily Observations layout. Learn more.

36.17497, -115.13722

Hourly Observations for October 6, 2018

Temp ( °F °C ) Dew Point ( °F °C ) Humidity (%) Winds ( mph kmh ) Pressure ( in mb ) Visibility ( mi km ) Precip ( " mm )
12:53 am 00:53 Clear 66 18.9 40 4.4 39 39 WSW 3 6 29.8 1009 10 16.09344 0 0
1:53 am 01:53 Clear 67 19.4 41 5 39 39 Calm 29.8 1009 10 16.09344 0 0
2:53 am 02:53 Clear 67 19.4 42 5.6 41 41 Calm 29.77 1008 10 16.09344 0 0
3:53 am 03:53 Clear 67 19.4 41 5 39 39 Calm 29.77 1008 10 16.09344 0 0
4:53 am 04:53 Clear 67 19.4 40 4.4 37 37 NE 3 6 29.77 1008 10 16.09344 0 0
5:53 am 05:53 Clear 67 19.4 40 4.4 37 37 N 3 6 29.74 1007 10 16.09344 0 0
6:53 am 06:53 Sunny 67 19.4 41 5 39 39 Calm 29.74 1007 10 16.09344 0 0
7:53 am 07:53 Sunny 68 20 39 3.9 35 35 Calm 29.77 1008 10 16.09344 0 0
8:53 am 08:53 Mostly Sunny 70 21.1 39 3.9 32 32 SSE 6 9 29.74 1007 10 16.09344 0 0
9:53 am 09:53 Mostly Cloudy 72 22.2 39 3.9 30 30 ESE 12 19 29.74 1007 10 16.09344 0 0
10:53 am 10:53 Partly Cloudy 73 22.8 40 4.4 30 30 E 12 19 29.74 1007 10 16.09344 0 0
11:53 am 11:53 Cloudy 73 22.8 40 4.4 30 30 ENE 8 13 29.74 1007 10 16.09344 0 0
12:18 pm 12:18 Partly Cloudy 73 22.8 45 7.2 37 37 NNW 28 44 29.62 1003 10 16.09344 0 0
12:53 pm 12:53 Mostly Sunny 73 22.8 43 6.1 34 34 NNW 29 46 29.71 1006 10 16.09344 0 0
1:53 pm 13:53 Mostly Sunny 70 21.1 42 5.6 37 37 N 24 39 29.71 1006 10 16.09344 0 0
2:53 pm 14:53 Partly Cloudy with Light Rain 69 20.6 45 7.2 42 42 N 13 20 29.68 1005 10 16.09344 0.001 0.001
3:53 pm 15:53 Sunny 71 21.7 41 5 34 34 N 12 19 29.65 1004 10 16.09344 0.001 0.001
4:37 pm 16:37 Partly Cloudy with Nearby Thunderstorms 73 22.8 40 4.4 30 30 N 15 24 29.59 1002 10 16.09344 0 0
4:53 pm 16:53 Sunny 74 23.3 39 3.9 28 28 NNW 14 22 29.65 1004 10 16.09344 0 0
5:04 pm 17:04 Sunny with Nearby Thunderstorms 74 23.3 39 3.9 28 28 N 12 19 29.59 1002 10 16.09344 0 0
5:24 pm 17:24 Sunny with Thunderstorms 73 22.8 40 4.4 30 30 N 12 19 29.59 1002 10 16.09344 0 0
5:53 pm 17:53 Sunny with Thunderstorms 70 21.1 42 5.6 37 37 E 14 22 29.65 1004 10 16.09344 0 0
6:08 pm 18:08 Sunny with Nearby Thunderstorms 69 20.6 44 6.7 41 41 E 16 26 29.62 1003 10 16.09344 0 0
6:23 pm 18:23 Clear with Thunderstorms 68 20 45 7.2 44 44 E 16 26 29.62 1003 10 16.09344 0 0
6:38 pm 18:38 Clear 68 20 45 7.2 44 44 E 13 20 29.62 1003 10 16.09344 0 0
6:53 pm 18:53 Clear 67 19.4 45 7.2 45 45 E 9 15 29.71 1006 10 16.09344 0 0
7:53 pm 19:53 Mostly Clear 67 19.4 43 6.1 42 42 E 12 19 29.71 1006 10 16.09344 0 0
8:53 pm 20:53 Clear 67 19.4 44 6.7 44 44 N 6 9 29.71 1006 10 16.09344 0 0
9:53 pm 21:53 Clear 66 18.9 44 6.7 45 45 N 10 17 29.74 1007 10 16.09344 0 0
10:53 pm 22:53 Clear 65 18.3 39 3.9 39 39 NNW 13 20 29.71 1006 10 16.09344 0 0
11:53 pm 23:53 Clear 66 18.9 39 3.9 37 37 NNW 7 11 29.71 1006 10 16.09344 0 0

Powered by AerisWeather